Time,TemperatureF,DewpointF,PressureIn,WindDirection,WindDirectionDegrees,WindSpeedMPH,WindSpeedGustMPH,Humidity,HourlyPrecipIn,Conditions,Clouds,dailyrainin,SoftwareType,DateUTC
2013-07-12 00:01:00,79.0,-99.9,29.96,North,-999,-999.0,-999.0,-999,-99.99,,,-99.99,,2013-07-12 04:01:00,
2013-07-12 01:02:00,78.0,-99.9,29.95,North,-999,-999.0,-999.0,-999,-99.99,,,-99.99,,2013-07-12 05:02:00,
2013-07-12 01:12:00,78.0,-99.9,29.95,North,-999,-999.0,-999.0,-999,-99.99,,,-99.99,,2013-07-12 05:12:00,
2013-07-12 01:32:00,79.0,-99.9,29.95,North,-999,-999.0,-999.0,-999,-99.99,,,-99.99,,2013-07-12 05:32:00,
2013-07-12 01:43:00,79.0,-99.9,29.94,North,-999,-999.0,-999.0,-999,-99.99,,,-99.99,,2013-07-12 05:43:00,
2013-07-12 01:53:00,79.0,-99.9,29.94,North,-999,-999.0,-999.0,-999,-99.99,,,-99.99,,2013-07-12 05:53:00,
2013-07-12 02:02:00,79.0,-99.9,29.94,North,-999,-999.0,-999.0,-999,-99.99,,,-99.99,,2013-07-12 06:02:00,
2013-07-12 02:11:00,78.0,-99.9,29.93,North,-999,-999.0,-999.0,-999,-99.99,,,-99.99,,2013-07-12 06:11:00,
2013-07-12 02:33:00,78.0,-99.9,29.93,North,-999,-999.0,-999.0,-999,-99.99,,,-99.99,,2013-07-12 06:33:00,
2013-07-12 02:52:00,78.0,-99.9,29.92,North,-999,-999.0,-999.0,-999,-99.99,,,-99.99,,2013-07-12 06:52:00,
2013-07-12 03:02:00,78.0,-99.9,29.92,North,-999,-999.0,-999.0,-999,-99.99,,,-99.99,,2013-07-12 07:02:00,
2013-07-12 03:12:00,78.0,-99.9,29.92,North,-999,-999.0,-999.0,-999,-99.99,,,-99.99,,2013-07-12 07:12:00,
2013-07-12 03:33:00,78.0,-99.9,29.91,North,-999,-999.0,-999.0,-999,-99.99,,,-99.99,,2013-07-12 07:33:00,
2013-07-12 03:43:00,77.0,-99.9,29.91,North,-999,-999.0,-999.0,-999,-99.99,,,-99.99,,2013-07-12 07:43:00,
2013-07-12 03:52:00,78.0,-99.9,29.91,North,-999,-999.0,-999.0,-999,-99.99,,,-99.99,,2013-07-12 07:52:00,
2013-07-12 04:02:00,78.0,-99.9,29.91,North,-999,-999.0,-999.0,-999,-99.99,,,-99.99,,2013-07-12 08:02:00,
2013-07-12 04:11:00,78.0,-99.9,29.91,North,-999,-999.0,-999.0,-999,-99.99,,,-99.99,,2013-07-12 08:11:00,
2013-07-12 04:32:00,77.0,-99.9,29.90,North,-999,-999.0,-999.0,-999,-99.99,,,-99.99,,2013-07-12 08:32:00,
2013-07-12 04:42:00,77.0,-99.9,29.90,North,-999,-999.0,-999.0,-999,-99.99,,,-99.99,,2013-07-12 08:42:00,
2013-07-12 05:02:00,78.0,-99.9,29.90,North,-999,-999.0,-999.0,-999,-99.99,,,-99.99,,2013-07-12 09:02:00,
2013-07-12 05:13:00,78.0,-99.9,29.90,North,-999,-999.0,-999.0,-999,-99.99,,,-99.99,,2013-07-12 09:13:00,
2013-07-12 06:43:00,76.0,-99.9,29.91,North,-999,-999.0,-999.0,-999,-99.99,,,-99.99,,2013-07-12 10:43:00,
2013-07-12 07:43:00,78.0,-99.9,29.92,North,-999,-999.0,-999.0,-999,-99.99,,,-99.99,,2013-07-12 11:43:00,
2013-07-12 08:32:00,76.0,-99.9,29.94,North,-999,-999.0,-999.0,-999,-99.99,,,-99.99,,2013-07-12 12:32:00,
2013-07-12 08:43:00,76.0,-99.9,29.94,North,-999,-999.0,-999.0,-999,-99.99,,,-99.99,,2013-07-12 12:43:00,
2013-07-12 08:53:00,76.0,-99.9,29.94,North,-999,-999.0,-999.0,-999,-99.99,,,-99.99,,2013-07-12 12:53:00,
2013-07-12 09:01:00,75.0,-99.9,29.94,North,-999,-999.0,-999.0,-999,-99.99,,,-99.99,,2013-07-12 13:01:00,
2013-07-12 09:32:00,79.0,-99.9,29.94,North,-999,-999.0,-999.0,-999,-99.99,,,-99.99,,2013-07-12 13:32:00,
2013-07-12 09:43:00,80.0,-99.9,29.94,North,-999,-999.0,-999.0,-999,-99.99,,,-99.99,,2013-07-12 13:43:00,
2013-07-12 10:02:00,82.0,-99.9,29.94,North,-999,-999.0,-999.0,-999,-99.99,,,-99.99,,2013-07-12 14:02:00,
2013-07-12 10:32:00,80.0,-99.9,29.95,North,-999,-999.0,-999.0,-999,-99.99,,,-99.99,,2013-07-12 14:32:00,
2013-07-12 10:44:00,79.0,-99.9,29.95,North,-999,-999.0,-999.0,-999,-99.99,,,-99.99,,2013-07-12 14:44:00,
2013-07-12 10:53:00,79.0,-99.9,29.95,North,-999,-999.0,-999.0,-999,-99.99,,,-99.99,,2013-07-12 14:53:00,
2013-07-12 11:02:00,77.0,-99.9,29.96,North,-999,-999.0,-999.0,-999,-99.99,,,-99.99,,2013-07-12 15:02:00,
2013-07-12 12:02:00,77.0,-99.9,29.95,North,-999,-999.0,-999.0,-999,-99.99,,,-99.99,,2013-07-12 16:02:00,
2013-07-12 13:07:00,80.0,-99.9,29.95,North,-999,-999.0,-999.0,-999,-99.99,,,-99.99,,2013-07-12 17:07:00,
2013-07-12 14:08:00,82.0,-99.9,29.94,North,-999,-999.0,-999.0,-999,-99.99,,,-99.99,,2013-07-12 18:08:00,
2013-07-12 14:52:00,83.0,-99.9,29.92,North,-999,-999.0,-999.0,-999,-99.99,,,-99.99,,2013-07-12 18:52:00,
2013-07-12 15:05:00,83.0,-99.9,29.92,North,-999,-999.0,-999.0,-999,-99.99,,,-99.99,,2013-07-12 19:05:00,
2013-07-12 15:15:00,83.0,-99.9,29.92,North,-999,-999.0,-999.0,-999,-99.99,,,-99.99,,2013-07-12 19:15:00,
2013-07-12 15:25:00,83.0,-99.9,29.92,North,-999,-999.0,-999.0,-999,-99.99,,,-99.99,,2013-07-12 19:25:00,
2013-07-12 15:48:00,84.0,-99.9,29.91,North,-999,-999.0,-999.0,-999,-99.99,,,-99.99,,2013-07-12 19:48:00,
2013-07-12 16:04:00,83.0,-99.9,29.91,North,-999,-999.0,-999.0,-999,-99.99,,,-99.99,,2013-07-12 20:04:00,
2013-07-12 17:04:00,83.0,-99.9,29.90,North,-999,-999.0,-999.0,-999,-99.99,,,-99.99,,2013-07-12 21:04:00,
2013-07-12 17:49:00,84.0,-99.9,29.90,North,-999,-999.0,-999.0,-999,-99.99,,,-99.99,,2013-07-12 21:49:00,
2013-07-12 18:04:00,84.0,-99.9,29.89,North,-999,-999.0,-999.0,-999,-99.99,,,-99.99,,2013-07-12 22:04:00,
2013-07-12 19:06:00,83.0,-99.9,29.90,North,-999,-999.0,-999.0,-999,-99.99,,,-99.99,,2013-07-12 23:06:00,
2013-07-12 19:45:00,84.0,-99.9,29.91,North,-999,-999.0,-999.0,-999,-99.99,,,-99.99,,2013-07-12 23:45:00,
2013-07-12 19:58:00,84.0,-99.9,29.91,North,-999,-999.0,-999.0,-999,-99.99,,,-99.99,,2013-07-12 23:58:00,
2013-07-12 20:08:00,83.0,-99.9,29.91,North,-999,-999.0,-999.0,-999,-99.99,,,-99.99,,2013-07-13 00:08:00,
2013-07-12 20:19:00,83.0,-99.9,29.91,North,-999,-999.0,-999.0,-999,-99.99,,,-99.99,,2013-07-13 00:19:00,
2013-07-12 20:34:00,81.0,-99.9,29.91,North,-999,-999.0,-999.0,-999,-99.99,,,-99.99,,2013-07-13 00:34:00,
2013-07-12 20:50:00,81.0,-99.9,29.91,North,-999,-999.0,-999.0,-999,-99.99,,,-99.99,,2013-07-13 00:50:00,
2013-07-12 20:56:00,80.0,-99.9,29.92,North,-999,-999.0,-999.0,-999,-99.99,,,-99.99,,2013-07-13 00:56:00,
2013-07-12 21:05:00,80.0,-99.9,29.91,North,-999,-999.0,-999.0,-999,-99.99,,,-99.99,,2013-07-13 01:05:00,
2013-07-12 21:14:00,80.0,-99.9,29.91,North,-999,-999.0,-999.0,-999,-99.99,,,-99.99,,2013-07-13 01:14:00,
2013-07-12 21:50:00,78.0,-99.9,29.93,North,-999,-999.0,-999.0,-999,-99.99,,,-99.99,,2013-07-13 01:50:00,
2013-07-12 21:58:00,78.0,-99.9,29.93,North,-999,-999.0,-999.0,-999,-99.99,,,-99.99,,2013-07-13 01:58:00,
2013-07-12 22:15:00,78.0,-99.9,29.93,North,-999,-999.0,-999.0,-999,-99.99,,,-99.99,,2013-07-13 02:15:00,
2013-07-12 22:48:00,77.0,-99.9,29.93,North,-999,-999.0,-999.0,-999,-99.99,,,-99.99,,2013-07-13 02:48:00,